Time,TemperatureF,DewpointF,PressureIn,WindDirection,WindDirectionDegrees,WindSpeedMPH,WindSpeedGustMPH,Humidity,HourlyPrecipIn,Conditions,Clouds,dailyrainin,SoftwareType,DateUTC
2013-02-23 00:03:00,28.0,26.0,-100.00,NNE,20,3.0,4.0,93,0.00,,,-99.99,,2013-02-23 05:03:00,
2013-02-23 00:12:00,28.0,26.0,-100.00,NE,45,2.0,3.0,93,0.00,,,-99.99,,2013-02-23 05:12:00,
2013-02-23 00:22:00,28.0,26.0,-100.00,NE,45,2.0,3.0,93,0.00,,,-99.99,,2013-02-23 05:22:00,
2013-02-23 00:33:00,28.0,26.0,-100.00,NE,40,4.0,5.0,93,0.00,,,-99.99,,2013-02-23 05:33:00,
2013-02-23 00:42:00,28.0,27.0,-100.00,NE,50,1.0,2.0,93,0.00,,,-99.99,,2013-02-23 05:42:00,
2013-02-23 00:52:00,28.0,27.0,-100.00,NE,50,4.0,4.0,93,0.00,,,-99.99,,2013-02-23 05:52:00,
2013-02-23 01:02:00,28.0,27.0,-100.00,NE,50,4.0,4.0,93,0.00,,,-99.99,,2013-02-23 06:02:00,
2013-02-23 01:11:00,28.0,27.0,-100.00,East,100,1.0,1.0,93,0.00,,,-99.99,,2013-02-23 06:11:00,
2013-02-23 01:22:00,28.0,27.0,-100.00,East,100,1.0,1.0,93,0.00,,,-99.99,,2013-02-23 06:22:00,
2013-02-23 01:32:00,28.0,27.0,-100.00,East,85,2.0,3.0,93,0.00,,,-99.99,,2013-02-23 06:32:00,
2013-02-23 01:42:00,28.0,27.0,-100.00,East,85,1.0,1.0,93,0.00,,,-99.99,,2013-02-23 06:42:00,
2013-02-23 01:51:00,28.0,27.0,-100.00,East,85,1.0,1.0,93,0.00,,,-99.99,,2013-02-23 06:51:00,
2013-02-23 02:01:00,28.0,27.0,-100.00,NE,35,2.0,3.0,93,0.00,,,-99.99,,2013-02-23 07:01:00,
2013-02-23 02:11:00,28.0,27.0,-100.00,NE,55,2.0,2.0,93,0.00,,,-99.99,,2013-02-23 07:11:00,
2013-02-23 02:21:00,28.0,27.0,-100.00,NE,55,2.0,2.0,93,0.00,,,-99.99,,2013-02-23 07:21:00,
2013-02-23 02:32:00,28.0,27.0,-100.00,East,80,1.0,2.0,93,0.00,,,-99.99,,2013-02-23 07:32:00,
2013-02-23 02:42:00,28.0,27.0,-100.00,NNE,25,2.0,4.0,93,0.00,,,-99.99,,2013-02-23 07:42:00,
2013-02-23 02:51:00,28.0,27.0,-100.00,NNE,25,2.0,4.0,93,0.00,,,-99.99,,2013-02-23 07:51:00,
2013-02-23 03:01:00,28.0,27.0,-100.00,NE,45,0.0,1.0,93,0.00,,,-99.99,,2013-02-23 08:01:00,
2013-02-23 03:11:00,28.0,27.0,-100.00,NNE,30,1.0,2.0,93,0.00,,,-99.99,,2013-02-23 08:11:00,
2013-02-23 03:21:00,29.0,27.0,-100.00,North,5,0.0,1.0,93,0.00,,,-99.99,,2013-02-23 08:21:00,
2013-02-23 03:32:00,29.0,27.0,-100.00,North,5,0.0,1.0,93,0.00,,,-99.99,,2013-02-23 08:32:00,
2013-02-23 03:42:00,29.0,27.0,-100.00,NE,50,1.0,3.0,93,0.00,,,-99.99,,2013-02-23 08:42:00,
2013-02-23 03:53:00,29.0,27.0,-100.00,NE,55,1.0,2.0,93,0.00,,,-99.99,,2013-02-23 08:53:00,
2013-02-23 04:02:00,29.0,27.0,-100.00,NE,55,1.0,2.0,93,0.00,,,-99.99,,2013-02-23 09:02:00,
2013-02-23 04:11:00,29.0,27.0,-100.00,NNE,30,0.0,0.0,93,0.00,,,-99.99,,2013-02-23 09:11:00,
2013-02-23 04:21:00,29.0,27.0,-100.00,NNE,30,0.0,0.0,93,0.00,,,-99.99,,2013-02-23 09:21:00,
2013-02-23 04:32:00,29.0,27.0,-100.00,NNE,20,1.0,1.0,93,0.00,,,-99.99,,2013-02-23 09:32:00,
2013-02-23 04:42:00,29.0,27.0,-100.00,ENE,65,0.0,0.0,93,0.00,,,-99.99,,2013-02-23 09:42:00,
2013-02-23 04:51:00,29.0,27.0,-100.00,North,5,0.0,1.0,93,0.00,,,-99.99,,2013-02-23 09:51:00,
2013-02-23 05:01:00,29.0,27.0,-100.00,North,5,0.0,1.0,93,0.00,,,-99.99,,2013-02-23 10:01:00,
2013-02-23 05:11:00,29.0,27.0,-100.00,NNE,30,0.0,0.0,93,0.00,,,-99.99,,2013-02-23 10:11:00,
2013-02-23 05:21:00,29.0,27.0,-100.00,NNE,30,0.0,0.0,93,0.00,,,-99.99,,2013-02-23 10:21:00,
2013-02-23 05:32:00,29.0,27.0,-100.00,NE,35,0.0,0.0,93,0.00,,,-99.99,,2013-02-23 10:32:00,
2013-02-23 05:42:00,29.0,27.0,-100.00,North,5,1.0,2.0,93,0.00,,,-99.99,,2013-02-23 10:42:00,
2013-02-23 05:51:00,29.0,27.0,-100.00,NNE,30,0.0,0.0,93,0.00,,,-99.99,,2013-02-23 10:51:00,
2013-02-23 06:02:00,29.0,27.0,-100.00,NNE,30,0.0,0.0,93,0.00,,,-99.99,,2013-02-23 11:02:00,
2013-02-23 06:11:00,29.0,27.0,-100.00,NE,35,0.0,0.0,93,0.00,,,-99.99,,2013-02-23 11:11:00,
2013-02-23 06:22:00,29.0,27.0,-100.00,NE,35,0.0,0.0,93,0.00,,,-99.99,,2013-02-23 11:22:00,
2013-02-23 06:32:00,29.0,27.0,-100.00,NNE,30,0.0,0.0,93,0.00,,,-99.99,,2013-02-23 11:32:00,
2013-02-23 06:42:00,29.0,27.0,-100.00,NNW,345,1.0,2.0,93,0.00,,,-99.99,,2013-02-23 11:42:00,
2013-02-23 06:52:00,29.0,27.0,-100.00,NNE,15,1.0,2.0,93,0.00,,,-99.99,,2013-02-23 11:52:00,
2013-02-23 07:02:00,29.0,27.0,-100.00,NNE,15,1.0,2.0,93,0.00,,,-99.99,,2013-02-23 12:02:00,
2013-02-23 07:11:00,29.0,27.0,-100.00,NE,50,0.0,1.0,93,0.00,,,-99.99,,2013-02-23 12:11:00,
2013-02-23 07:21:00,29.0,27.0,-100.00,NE,50,0.0,1.0,93,0.00,,,-99.99,,2013-02-23 12:21:00,
2013-02-23 07:32:00,29.0,27.0,-100.00,WNW,295,0.0,1.0,93,0.00,,,-99.99,,2013-02-23 12:32:00,
2013-02-23 07:42:00,29.0,27.0,-100.00,NE,35,0.0,0.0,93,0.00,,,-99.99,,2013-02-23 12:42:00,
2013-02-23 07:52:00,29.0,27.0,-100.00,NE,35,0.0,0.0,93,0.00,,,-99.99,,2013-02-23 12:52:00,
2013-02-23 08:01:00,29.0,27.0,-100.00,NW,315,1.0,1.0,93,0.00,,,-99.99,,2013-02-23 13:01:00,
2013-02-23 08:11:00,29.0,28.0,-100.00,NE,45,0.0,0.0,93,0.00,,,-99.99,,2013-02-23 13:11:00,
2013-02-23 08:22:00,29.0,28.0,-100.00,NE,45,0.0,0.0,93,0.00,,,-99.99,,2013-02-23 13:22:00,
2013-02-23 08:32:00,30.0,28.0,-100.00,NE,40,1.0,1.0,93,0.00,,,-99.99,,2013-02-23 13:32:00,
2013-02-23 08:42:00,30.0,28.0,-100.00,NNE,20,1.0,1.0,93,0.00,,,-99.99,,2013-02-23 13:42:00,
2013-02-23 08:52:00,31.0,29.0,-100.00,ENE,60,0.0,1.0,93,0.00,,,-99.99,,2013-02-23 13:52:00,
2013-02-23 09:02:00,31.0,29.0,-100.00,ENE,60,0.0,1.0,93,0.00,,,-99.99,,2013-02-23 14:02:00,
2013-02-23 09:11:00,31.0,29.0,-100.00,ENE,70,0.0,1.0,93,0.00,,,-99.99,,2013-02-23 14:11:00,
2013-02-23 09:21:00,32.0,30.0,-100.00,NNE,30,0.0,0.0,93,0.00,,,-99.99,,2013-02-23 14:21:00,
2013-02-23 09:32:00,32.0,30.0,-100.00,NNE,30,0.0,0.0,93,0.00,,,-99.99,,2013-02-23 14:32:00,
2013-02-23 09:42:00,32.0,30.0,-100.00,North,0,1.0,2.0,93,0.00,,,-99.99,,2013-02-23 14:42:00,
2013-02-23 09:52:00,32.0,30.0,-100.00,NW,320,0.0,0.0,93,0.00,,,-99.99,,2013-02-23 14:52:00,
2013-02-23 10:02:00,32.0,30.0,-100.00,NW,320,0.0,0.0,93,0.00,,,-99.99,,2013-02-23 15:02:00,
2013-02-23 10:11:00,32.0,30.0,-100.00,East,85,0.0,0.0,93,0.00,,,-99.99,,2013-02-23 15:11:00,
2013-02-23 10:22:00,32.0,30.0,-100.00,East,85,0.0,0.0,93,0.00,,,-99.99,,2013-02-23 15:22:00,
2013-02-23 10:32:00,32.0,30.0,-100.00,East,85,0.0,0.0,93,0.00,,,-99.99,,2013-02-23 15:32:00,
2013-02-23 10:42:00,33.0,31.0,-100.00,East,95,0.0,0.0,93,0.00,,,-99.99,,2013-02-23 15:42:00,
2013-02-23 10:51:00,33.0,31.0,-100.00,East,95,0.0,0.0,93,0.00,,,-99.99,,2013-02-23 15:51:00,
2013-02-23 11:01:00,33.0,32.0,-100.00,NNE,30,1.0,2.0,93,0.00,,,-99.99,,2013-02-23 16:01:00,
2013-02-23 11:11:00,35.0,33.0,-100.00,NNE,30,0.0,0.0,92,0.00,,,-99.99,,2013-02-23 16:11:00,
2013-02-23 11:21:00,35.0,33.0,-100.00,NNE,30,0.0,0.0,92,0.00,,,-99.99,,2013-02-23 16:21:00,
2013-02-23 11:32:00,35.0,33.0,-100.00,ENE,60,1.0,2.0,90,0.00,,,-99.99,,2013-02-23 16:32:00,
2013-02-23 11:42:00,35.0,32.0,-100.00,WNW,295,0.0,1.0,88,0.00,,,-99.99,,2013-02-23 16:42:00,
2013-02-23 11:51:00,37.0,33.0,-100.00,East,90,0.0,1.0,86,0.00,,,-99.99,,2013-02-23 16:51:00,
2013-02-23 12:01:00,37.0,33.0,-100.00,East,90,0.0,1.0,86,0.00,,,-99.99,,2013-02-23 17:01:00,
2013-02-23 12:11:00,37.0,32.0,-100.00,WNW,285,0.0,1.0,83,0.00,,,-99.99,,2013-02-23 17:11:00,
2013-02-23 12:21:00,37.0,32.0,-100.00,WNW,285,0.0,1.0,83,0.00,,,-99.99,,2013-02-23 17:21:00,
2013-02-23 12:32:00,38.0,32.0,-100.00,West,270,1.0,2.0,79,0.00,,,-99.99,,2013-02-23 17:32:00,
2013-02-23 12:42:00,39.0,32.0,-100.00,SSW,205,1.0,2.0,77,0.00,,,-99.99,,2013-02-23 17:42:00,
2013-02-23 12:52:00,39.0,31.0,-100.00,East,100,2.0,3.0,74,0.00,,,-99.99,,2013-02-23 17:52:00,
2013-02-23 13:02:00,39.0,31.0,-100.00,East,100,2.0,3.0,74,0.00,,,-99.99,,2013-02-23 18:02:00,
2013-02-23 13:12:00,40.0,32.0,-100.00,NNE,30,2.0,4.0,72,0.00,,,-99.99,,2013-02-23 18:12:00,
2013-02-23 13:22:00,40.0,32.0,-100.00,NNE,30,2.0,4.0,72,0.00,,,-99.99,,2013-02-23 18:22:00,
2013-02-23 13:32:00,41.0,32.0,-100.00,SSE,155,0.0,0.0,70,0.00,,,-99.99,,2013-02-23 18:32:00,
2013-02-23 13:42:00,42.0,32.0,-100.00,West,280,0.0,2.0,68,0.00,,,-99.99,,2013-02-23 18:42:00,
2013-02-23 13:52:00,42.0,32.0,-100.00,West,280,0.0,2.0,68,0.00,,,-99.99,,2013-02-23 18:52:00,
2013-02-23 14:01:00,42.0,32.0,-100.00,NNE,15,3.0,4.0,67,0.00,,,-99.99,,2013-02-23 19:01:00,
2013-02-23 14:11:00,42.0,31.0,-100.00,East,100,0.0,0.0,66,0.00,,,-99.99,,2013-02-23 19:11:00,
2013-02-23 14:21:00,42.0,31.0,-100.00,East,100,0.0,0.0,66,0.00,,,-99.99,,2013-02-23 19:21:00,
2013-02-23 14:32:00,43.0,31.0,-100.00,NNW,330,1.0,2.0,64,0.00,,,-99.99,,2013-02-23 19:32:00,
2013-02-23 14:41:00,42.0,30.0,-100.00,SE,125,3.0,4.0,63,0.00,,,-99.99,,2013-02-23 19:41:00,
2013-02-23 14:52:00,42.0,30.0,-100.00,SE,125,3.0,4.0,63,0.00,,,-99.99,,2013-02-23 19:52:00,
2013-02-23 15:01:00,44.0,31.0,-100.00,South,190,1.0,1.0,61,0.00,,,-99.99,,2013-02-23 20:01:00,
2013-02-23 15:11:00,44.0,31.0,-100.00,SW,225,0.0,0.0,59,0.00,,,-99.99,,2013-02-23 20:11:00,
2013-02-23 15:21:00,44.0,31.0,-100.00,SW,225,0.0,0.0,59,0.00,,,-99.99,,2013-02-23 20:21:00,
2013-02-23 15:32:00,44.0,30.0,-100.00,SE,135,2.0,2.0,59,0.00,,,-99.99,,2013-02-23 20:32:00,
2013-02-23 15:42:00,45.0,31.0,-100.00,East,100,1.0,1.0,58,0.00,,,-99.99,,2013-02-23 20:42:00,
2013-02-23 15:52:00,45.0,31.0,-100.00,East,100,1.0,1.0,58,0.00,,,-99.99,,2013-02-23 20:52:00,
2013-02-23 16:02:00,45.0,31.0,-100.00,South,190,1.0,1.0,58,0.00,,,-99.99,,2013-02-23 21:02:00,
2013-02-23 16:11:00,45.0,31.0,-100.00,SE,145,1.0,1.0,57,0.00,,,-99.99,,2013-02-23 21:11:00,
2013-02-23 16:22:00,46.0,31.0,-100.00,South,190,0.0,0.0,57,0.00,,,-99.99,,2013-02-23 21:22:00,
2013-02-23 16:32:00,46.0,31.0,-100.00,South,190,0.0,0.0,57,0.00,,,-99.99,,2013-02-23 21:32:00,
2013-02-23 16:42:00,46.0,31.0,-100.00,ESE,115,0.0,0.0,57,0.00,,,-99.99,,2013-02-23 21:42:00,
2013-02-23 16:51:00,46.0,31.0,-100.00,West,280,0.0,0.0,57,0.00,,,-99.99,,2013-02-23 21:51:00,
2013-02-23 17:02:00,46.0,31.0,-100.00,West,280,0.0,0.0,57,0.00,,,-99.99,,2013-02-23 22:02:00,
2013-02-23 17:11:00,45.0,31.0,-100.00,East,95,0.0,1.0,58,0.00,,,-99.99,,2013-02-23 22:11:00,
2013-02-23 17:22:00,45.0,31.0,-100.00,East,95,0.0,1.0,58,0.00,,,-99.99,,2013-02-23 22:22:00,
2013-02-23 17:32:00,45.0,31.0,-100.00,West,280,1.0,1.0,59,0.00,,,-99.99,,2013-02-23 22:32:00,
2013-02-23 17:42:00,43.0,31.0,-100.00,West,275,2.0,2.0,62,0.00,,,-99.99,,2013-02-23 22:42:00,
2013-02-23 17:51:00,42.0,31.0,-100.00,West,265,3.0,3.0,65,0.00,,,-99.99,,2013-02-23 22:51:00,
2013-02-23 18:01:00,42.0,31.0,-100.00,West,265,3.0,3.0,65,0.00,,,-99.99,,2013-02-23 23:01:00,
2013-02-23 18:11:00,41.0,31.0,-100.00,WNW,285,2.0,2.0,67,0.00,,,-99.99,,2013-02-23 23:11:00,
2013-02-23 18:21:00,41.0,31.0,-100.00,WNW,285,2.0,2.0,67,0.00,,,-99.99,,2013-02-23 23:21:00,
2013-02-23 18:32:00,41.0,31.0,-100.00,West,260,1.0,1.0,68,0.00,,,-99.99,,2013-02-23 23:32:00,
2013-02-23 18:42:00,41.0,32.0,-100.00,West,260,0.0,0.0,70,0.00,,,-99.99,,2013-02-23 23:42:00,
2013-02-23 18:52:00,41.0,32.0,-100.00,WNW,295,1.0,1.0,70,0.00,,,-99.99,,2013-02-23 23:52:00,
2013-02-23 19:02:00,41.0,32.0,-100.00,WNW,295,1.0,1.0,70,0.00,,,-99.99,,2013-02-24 00:02:00,
2013-02-23 19:11:00,40.0,32.0,-100.00,WNW,290,1.0,1.0,72,0.00,,,-99.99,,2013-02-24 00:11:00,
2013-02-23 19:22:00,40.0,32.0,-100.00,West,275,2.0,3.0,73,0.00,,,-99.99,,2013-02-24 00:22:00,
2013-02-23 19:32:00,40.0,32.0,-100.00,West,275,2.0,3.0,73,0.00,,,-99.99,,2013-02-24 00:32:00,
2013-02-23 19:42:00,40.0,32.0,-100.00,WNW,285,2.0,4.0,75,0.00,,,-99.99,,2013-02-24 00:42:00,
2013-02-23 19:52:00,40.0,32.0,-100.00,WNW,285,2.0,4.0,75,0.00,,,-99.99,,2013-02-24 00:52:00,
2013-02-23 20:01:00,39.0,33.0,-100.00,West,265,2.0,2.0,78,0.00,,,-99.99,,2013-02-24 01:01:00,
2013-02-23 20:11:00,39.0,33.0,-100.00,WSW,255,0.0,0.0,79,0.00,,,-99.99,,2013-02-24 01:11:00,
2013-02-23 20:22:00,39.0,33.0,-100.00,NW,305,1.0,1.0,81,0.00,,,-99.99,,2013-02-24 01:22:00,
2013-02-23 20:32:00,39.0,33.0,-100.00,NW,305,1.0,1.0,81,0.00,,,-99.99,,2013-02-24 01:32:00,
2013-02-23 20:42:00,38.0,33.0,-100.00,NW,305,0.0,1.0,82,0.00,,,-99.99,,2013-02-24 01:42:00,
2013-02-23 20:51:00,38.0,33.0,-100.00,NW,305,0.0,1.0,82,0.00,,,-99.99,,2013-02-24 01:51:00,
2013-02-23 21:01:00,37.0,32.0,-100.00,SSE,150,1.0,1.0,82,0.00,,,-99.99,,2013-02-24 02:01:00,
2013-02-23 21:11:00,37.0,32.0,-100.00,WSW,240,1.0,1.0,84,0.00,,,-99.99,,2013-02-24 02:11:00,
2013-02-23 21:21:00,37.0,32.0,-100.00,WSW,240,1.0,1.0,84,0.00,,,-99.99,,2013-02-24 02:21:00,
2013-02-23 21:32:00,37.0,33.0,-100.00,NNW,345,0.0,1.0,86,0.00,,,-99.99,,2013-02-24 02:32:00,
2013-02-23 21:42:00,37.0,33.0,-100.00,SE,135,0.0,0.0,86,0.00,,,-99.99,,2013-02-24 02:42:00,
2013-02-23 21:52:00,37.0,33.0,-100.00,NW,305,0.0,0.0,86,0.00,,,-99.99,,2013-02-24 02:52:00,
2013-02-23 22:02:00,37.0,33.0,-100.00,NW,305,0.0,0.0,86,0.00,,,-99.99,,2013-02-24 03:02:00,
2013-02-23 22:11:00,37.0,33.0,-100.00,South,190,1.0,1.0,87,0.00,,,-99.99,,2013-02-24 03:11:00,
2013-02-23 22:22:00,37.0,33.0,-100.00,South,190,1.0,1.0,87,0.00,,,-99.99,,2013-02-24 03:22:00,
2013-02-23 22:32:00,36.0,33.0,-100.00,SSE,160,1.0,2.0,88,0.00,,,-99.99,,2013-02-24 03:32:00,
2013-02-23 22:42:00,37.0,34.0,-100.00,South,180,1.0,1.0,89,0.00,,,-99.99,,2013-02-24 03:42:00,
2013-02-23 22:52:00,36.0,33.0,-100.00,South,185,0.0,1.0,89,0.00,,,-99.99,,2013-02-24 03:52:00,
2013-02-23 23:02:00,36.0,33.0,-100.00,South,185,0.0,1.0,89,0.00,,,-99.99,,2013-02-24 04:02:00,
2013-02-23 23:11:00,36.0,33.0,-100.00,SSE,150,0.0,0.0,89,0.00,,,-99.99,,2013-02-24 04:11:00,
2013-02-23 23:21:00,36.0,33.0,-100.00,SSE,150,0.0,0.0,89,0.00,,,-99.99,,2013-02-24 04:21:00,
2013-02-23 23:32:00,36.0,33.0,-100.00,SSE,150,0.0,0.0,89,0.00,,,-99.99,,2013-02-24 04:32:00,
2013-02-23 23:42:00,36.0,33.0,-100.00,SW,220,0.0,0.0,90,0.00,,,-99.99,,2013-02-24 04:42:00,
2013-02-23 23:52:00,36.0,33.0,-100.00,SW,220,0.0,0.0,90,0.00,,,-99.99,,2013-02-24 04:52:00,